Regional Weather Roundup
Issued by NWS Grand Forks, ND

Home | Current Version | Previous Version | Graphics & Text | Print | Product List | Glossary On
Versions: 1 2 3 4 5 6 7 8 9 10 11 12 13 14 15 16 17 18 19 20 21 22 23 24 25 26 27 28 29 30 31 32 33 34 35 36 37 38 39 40 41 42 43 44 45 46 47 48 49 50
000
ASUS43 KFGF 221310
RWRFGF
PRAIRIE TO PINES  WEATHER ROUNDUP
NATIONAL WEATHER SERVICE EASTERN NORTH DAKOTA/GRAND FORKS ND
700 AM CST THU FEB 22 2018

 **SATELLITE DATA USED TO AUGMENT SKY COVER AT AUTOMATED STATIONS**
 *****  WEATHER ACROSS EASTERN NORTH DAKOTA  *****

CITY           SKY/WX    TMP DP  RH WIND       PRES   REMARKS
GRAND FORKS    FAIR      -3  -8  79 S8        30.44S WCI -18
GRAND FRKS AFB FAIR      -5 -10  79 S8        30.42F WCI -20
GRAND FRKS NWS   N/A     -1  -5  85 S6        30.41F WCI -13
DEVILS LAKE    FAIR     -10 -14  82 CALM      30.34R
FARGO          FAIR       6  -1  73 S16G23    30.45F WCI -12
WAHPETON ARPT  FAIR       3  -4  72 S7        30.49R WCI  -9
$$

 ***** WEATHER ACROSS CENTRAL AND WESTERN NORTH DAKOTA  *****

CITY           SKY/WX    TMP DP  RH WIND       PRES   REMARKS
BISMARCK       FAIR     -10 -15  78 NE6       30.31F WCI -23
MINOT          FAIR       1  -8  66 SW8       30.23S WCI -13
JAMESTOWN      FAIR      -1  -5  82 S7        30.33F WCI -14
MINOT AFB      FAIR     -12 -17  78 CALM      30.23S
GARRISON         N/A    -12 -18  74 SE3       30.25R
WILLISTON      FAIR     -14 -18  82 CALM      30.21F
DICKINSON      FAIR      -7 -13  75 CALM      30.15R
HETTINGER      FAIR     -15 -21  74 CALM      30.18S
$$

 *****  OTHER AIRPORT OBSERVATIONS IN OUR AREA  *****

CITY           SKY/WX    TMP DP  RH WIND       PRES   REMARKS
WALHALLA       FAIR      -6  -6 100 SE6       30.39S WCI -18
GRAFTON AIRPOR FAIR      -9 -13  84 SE9       30.46S WCI -27
VALLEY CITY AR FAIR       0  -4  85 S12       30.38F WCI -18
CANDO          FAIR     -13 -18  77 SE8       30.33S WCI -30
CAVALIER APRT    N/A     -8 -11  84 SE5       30.41S WCI -19
GWINNER          N/A     -6 -11  77 CALM      30.41S
ROLLA          FAIR      -6  -9  84 SW12      30.25S WCI -24
 ***** THE ABOVE OBSERVATIONS ARE NON NWS ARE NOT QUALITY
       CONTROLLED AND MAY MIS-REPORT RAIN FOR SNOW...
$$

  *****  WEATHER ACROSS NORTHERN MINNESOTA  *****

CITY           SKY/WX    TMP DP  RH WIND       PRES   REMARKS
FLAG ISLAND    FAIR     -11 -17  77 SE6       30.45F WCI -25
WARROAD        FAIR      -9 -15  77 S5        30.46S WCI -21
ROSEAU         FAIR      -4  -9  77 S7        30.45F WCI -18
HALLOCK        FAIR      -4  -9  77 S13       30.43F WCI -23
THF RVR FALLS  FAIR      -2  -7  79 SE9       30.45F WCI -18
BAUDETTE       FAIR      -9 -13  83 SE6       30.47R WCI -22
WASKISH        FAIR      -4  -8  84 SE5       30.49R WCI -15
CROOKSTON      FAIR      -2  -8  78 SE10      30.45F WCI -19
STEPHEN NDAWN    N/A     -6  -9  84 SE10        N/A  WCI -23
GREENBUSH NDAW   N/A     -8 -13  77 S7          N/A  WCI -22
$$
  *****  WEATHER ACROSS CENTRAL AND WEST MINNESOTA  *****

CITY           SKY/WX    TMP DP  RH WIND       PRES   REMARKS
FOSSTON        FAIR      -2  -9  71 SE7       30.44F WCI -16
BEMIDJI        FAIR     -12 -16  82 SE6       30.47F WCI -26
PARK RAPIDS    FAIR      -4  -9  79 SE8       30.48F WCI -19
ELBOW LAKE     FAIR       7   0  74 SE9       30.48R WCI  -7
WADENA         FAIR      -6  -9  84 E5        30.49F WCI -17
DETROIT LAKES  FAIR       3   0  85 SE10      30.45F WCI -12
MOORHEAD       FAIR       5  -2  72 S12       30.47R WCI -11
FERGUS FALLS   FAIR       9   0  66 SE14      30.48R WCI  -8
MORRIS MN      FAIR       3  -2  78 SE9       30.49S WCI -11
STAPLES        FAIR      -8 -11  84 SE3       30.52F
$$
  *****  WEATHER ELSEWHERE ACROSS MINNESOTA  *****

CITY           SKY/WX    TMP DP  RH WIND       PRES   REMARKS
DULUTH         FAIR      -3  -8  79 CALM      30.56S
INTRNTL FALLS  FAIR     -13 -16  86 SE6       30.52S WCI -27
ELY            FAIR     -15 -20  76 CALM      30.55S
CLOQUET        FAIR      -8 -11  84 CALM      30.56F
WHEATON        FAIR       3  -2  78 SE15      30.50S WCI -15
BRAINERD       FAIR      -9 -15  75 CALM      30.55S
HIBBING        FAIR     -16 -22  74 CALM      30.55R
ALEXANDRIA     FAIR       5   0  79 SE5       30.48F WCI  -4
SAINT CLOUD    FAIR      -7 -11  83 CALM      30.57R
MINNEAPOLIS    CLOUDY    13   7  77 E6        30.59F WCI   4
$$

  *****  WEATHER ACROSS SOUTH DAKOTA  *****

CITY           SKY/WX    TMP DP  RH WIND       PRES   REMARKS
SIOUX FALLS    FLURRIES  17  13  84 E7        30.44F WCI   8
BROOKINGS      CLOUDY    12   8  84 SE6       30.43S WCI   3
WATERTOWN      MOCLDY     9   6  88 S10       30.39F WCI  -5
HURON          CLOUDY    16  10  77 SE10      30.39F WCI   4
SISSETON         N/A      2  -2  83 SE5       30.44F WCI  -8
ABERDEEN       FAIR       2  -2  83 S7        30.39S WCI -11
MITCHELL       CLOUDY    18  11  74 SE10      30.42S WCI   6
PIERRE         FAIR       5   2  87 SE10      30.29S WCI -10
MOBRIDGE       FAIR      -6  -9  86 CALM      30.26S
RAPID CITY     FAIR      -3  -8  79 CALM      30.11S
$$

  *****  SOME WEATHER IN NEARBY STATES *****

CITY           SKY/WX    TMP DP  RH WIND       PRES   REMARKS
GLASGOW MT     FAIR     -15 -17  91 NW3       30.17S
GREAT FALLS MT FAIR      -1  -7  75 N5        30.07R WCI -11
CHEYENNE WY    FAIR       9   5  84 W6        29.93F WCI  -1
SCOTTSBLUFF NE CLOUDY     8   5  87 E7        30.11S WCI  -3
OMAHA NE       LGT SNOW  23  19  85 E6        30.44S FOG     WCI  16
DES MOINES IA  FLURRIES  25  17  72 NE12      30.47F WCI  14
DAVENPORT IA   CLOUDY    28  19  69 NE13      30.54S WCI  17
CHICAGO IL     CLOUDY    33  27  78 NE14      30.54S WCI  23
EAU CLAIRE WI  MOCLDY     6   3  87 NE3       30.63F
LA CROSSE WI   CLOUDY    22  14  71 NE5       30.60F WCI  16
$$

  *****  SOME NATIONAL WEATHER *****

CITY           SKY/WX    TMP DP  RH WIND       PRES   REMARKS
LA GUARDIA NY  LGT RAIN  47  37  68 N9G21     30.58R
RALEIGH NC     CLOUDY    66  64  93 SW9       30.46R
ATLANTA GA     MOCLDY    63  63 100 SE5       30.44R
NEW ORLEANS LA FAIR      71  71 100 SE8       30.28R
OKLAHOMA CITY  FRZ DRZL  28  27  96 NE3       30.33R VSB 3/4
ALBUQUERQUE NM CLOUDY    32  20  61 N10       30.01R WCI  24
SALT LAKE CITY MOCLDY    23  14  68 SE6       29.98F WCI  16
LOS ANGELES CA FAIR      44  30  57 E5        30.19S
BOISE ID       SNOW      25  23  92 NW7       29.93S VSB 1/2 WCI  17
SEATTLE WA     MOCLDY    28  23  81 N9        30.20R WCI  19
$$

*** WEATHER ACROSS MANITOBA...SASKATCHEWAN AND ONTARIO ***
                ***ONTARIO***

CITY           SKY/WX    TMP DP  RH WIND       PRES   REMARKS
GERALDTON      PTCLDY   -17 -20  83 SW3       30.54R
THUNDER BAY    PTCLDY   -13 -18  77 W6        30.65R WCI -27
SIOUX LOOKOUT  PTCLDY    -8 -11  84 SE6       30.48S WCI -21
TORONTO        CLOUDY    28  19  69 NE8       30.64R WCI  20
BIG TROUT LK   CLEAR    -17 -24  70 SW8       30.33F WCI -34
PICKLE LAKE    PTCLDY    -8 -13  77 SW12      30.41F WCI -27
DRYDEN         CLEAR     -6  -9  84 S9        30.46S WCI -22
KENORA         PTCLDY    -6  -9  84 S9        30.43S WCI -22
$$
                *** MANITOBA***

CITY           SKY/WX    TMP DP  RH WIND       PRES   REMARKS
BRANDON        CLEAR    -15 -20  76 NE3       30.27F
DAUPHIN        CLEAR     -2  -8  78 W8        30.25S WCI -17
ISLAND LAKE    CLEAR     -9 -17  70 S7        30.20F WCI -24
PILOT MOUND      N/A     -8 -11  84 S10         N/A  WCI -26
THE PAS        CLOUDY    -8 -13  77 S10       30.03F WCI -26
THOMPSON       PTCLDY    -9 -17  70 S8        29.92F WCI -26
WINNIPEG       CLEAR     -2  -6  84 S13       30.39F WCI -21
LYNN LAKE      LGT SNOW   0  -4  85 SW13      29.72F WCI -18
CHURCHILL      FLURRIES  -8 -15  71 S20G26    29.76F WCI -32
GILLAM         PTCLDY   -11 -18  70 S15G23    29.96F WCI -34
$$
                ***SASKATCHEWAN***

CITY           SKY/WX    TMP DP  RH WIND       PRES   REMARKS
ESTEVAN        CLEAR     -9 -15  77 SW7       30.20S WCI -24
KINDERSLEY     PTCLDY   -15 -20  76 S8        30.09R WCI -32
LLOYDMINSTER   FLURRIES   7   5  92 W14       30.04R WCI -10
PRINCE ALBERT  PTCLDY    -9 -15  77 SW7       30.08S WCI -24
REGINA         CLEAR    -15 -20  76 SE9       30.15S WCI -33
YORKTON        PTCLDY    -8 -13  77 S7        30.15F WCI -22
N. BATTLEFORD  CLEAR     -8 -15  71 W2        30.11R
LA RONGE       FLURRIES   5  -2  72 W9        29.95R WCI  -9
SASKATOON      CLEAR    -11 -17  77 S7        30.11R WCI -26
SWIFT CURRENT  CLEAR     -6 -11  77 W14       30.06R WCI -26
$$
NOTE: THESE ARE AUTOMATED STATIONS WITH LIMITED QUALITY CONTROL
      "FAIR" INDICATES FEW OR NO CLOUDS BELOW 12,000 FEET WITH NO
      SIGNIFICANT WEATHER AND/OR OBSTRUCTIONS TO VISIBILITY.
      SKY/WX - SKY CONDITION AND SIGNIFICANT WEATHER.
      TMP - AIR TEMPERATURE.    DP   - DEWPOINT TEMPERATURE.
      RH  - RELATIVE HUMIDITY.  PRES - PRESSURE.
      HX  - HEAT INDEX.         WCI  - WIND CHILL INDEX.
$




USA.gov is the U.S. government's official web portal to all federal, state and local government web resources and services.